User: anonymous   Login
Location: Unspecified
(0.0000°N, 0.0000°E)
Time: 03:47:09
(UTC+02:00)
Language:

Cosmos 1933 - Orbit

View from above orbital plane
View from above orbital plane
View from above satellite
View from above satellite

Ground track
Ground track

The orbit data is extracted from the following two-line orbital elements,

1 18958U 88020A   16244.49389436  .00000248  00000-0  16328-4 0  9990
2 18958  82.5304  23.3219 0011752 180.2055 179.9168 15.02993242548018
Epoch (UTC): 31 August 2016 11:51:12
Eccentricity: 0.0011752
inclination: 82.5304°
perigee height: 549 km
apogee height: 566 km
right ascension of ascending node: 23.3219°
argument of perigee: 180.2055°
revolutions per day: 15.02993242
mean anomaly at epoch: 179.9168°
orbit number at epoch: 54801

The dashed part of the orbit path shows where the satellite is in the earth's shadow,  

DLR